| time (UTC) | temp F | wind direction | speed MPH | gust MPH | rain 1hr in | rain 24hr in | rain mn in | humidity % | barometer mb |
| 20260505010816 | 56 | 123 | 0.0 | 0.0 | 0.07 | 0.25 | 0.25 | 89 | 1012.6 |
| 20260505010328 | 56 | 122 | 0.0 | 0.0 | 0.07 | 0.24 | 0.24 | 89 | 1012.8 |
| 20260505005819 | 56 | 123 | 0.0 | 0.0 | 0.07 | 0.24 | 0.24 | 88 | 1012.9 |
| 20260505005332 | 56 | 123 | 0.0 | 0.0 | 0.07 | 0.23 | 0.23 | 88 | 1013.0 |
| 20260505004821 | 56 | 122 | 0.0 | 0.0 | 0.07 | 0.23 | 0.23 | 88 | 1013.2 |
| 20260505004330 | 56 | 123 | 0.0 | 0.0 | 0.07 | 0.22 | 0.22 | 88 | 1013.3 |
| 20260505003820 | 56 | 123 | 0.0 | 0.0 | 0.06 | 0.21 | 0.21 | 88 | 1013.5 |
| 20260505003328 | 56 | 122 | 0.0 | 0.0 | 0.06 | 0.20 | 0.20 | 88 | 1013.3 |
| 20260505002837 | 56 | 123 | 0.0 | 0.0 | 0.07 | 0.20 | 0.20 | 88 | 1013.3 |
| 20260505001835 | 56 | 122 | 0.0 | 0.0 | 0.08 | 0.19 | 0.19 | 88 | 1013.3 |
| 20260505001323 | 56 | 123 | 0.0 | 0.0 | 0.07 | 0.18 | 0.18 | 88 | 1013.2 |
| 20260505000816 | 57 | 123 | 0.0 | 0.0 | 0.08 | 0.18 | 0.18 | 88 | 1013.3 |
| 20260505000327 | 57 | 111 | 0.0 | 0.0 | 0.08 | 0.17 | 0.17 | 88 | 1013.5 |
| 20260504235836 | 57 | 111 | 0.0 | 0.0 | 0.08 | 0.17 | 0.17 | 88 | 1013.6 |
| 20260504235324 | 57 | 105 | 0.0 | 0.0 | 0.08 | 0.16 | 0.16 | 88 | 1013.4 |
| 20260504234833 | 57 | 122 | 0.0 | 0.0 | 0.08 | 0.16 | 0.16 | 88 | 1013.4 |
| 20260504234322 | 57 | 122 | 0.0 | 0.0 | 0.07 | 0.15 | 0.15 | 88 | 1013.3 |
| 20260504233832 | 57 | 122 | 0.0 | 0.0 | 0.07 | 0.15 | 0.15 | 88 | 1013.2 |
| 20260504233320 | 57 | 122 | 0.0 | 0.0 | 0.07 | 0.14 | 0.14 | 87 | 1013.2 |
| 20260504232817 | 57 | 122 | 0.0 | 0.0 | 0.06 | 0.13 | 0.13 | 87 | 1013.3 |
| 20260504232326 | 57 | 122 | 0.0 | 0.0 | 0.05 | 0.12 | 0.12 | 87 | 1013.3 |
| 20260504231835 | 57 | 122 | 0.0 | 0.0 | 0.05 | 0.11 | 0.11 | 87 | 1013.4 |
| 20260504231323 | 57 | 122 | 0.0 | 0.0 | 0.05 | 0.11 | 0.11 | 87 | 1013.5 |
| 20260504230832 | 58 | 122 | 0.0 | 0.0 | 0.05 | 0.10 | 0.10 | 87 | 1013.5 |
| 20260504230320 | 58 | 122 | 0.0 | 0.0 | 0.04 | 0.09 | 0.09 | 86 | 1013.5 |
| 20260504225829 | 58 | 122 | 0.0 | 0.0 | 0.05 | 0.09 | 0.09 | 86 | 1013.6 |
| 20260504225337 | 58 | 122 | 0.0 | 0.0 | 0.04 | 0.08 | 0.08 | 86 | 1013.6 |
| 20260504224826 | 58 | 122 | 0.0 | 0.0 | 0.04 | 0.08 | 0.08 | 86 | 1013.6 |
| 20260504224319 | 58 | 122 | 0.0 | 0.0 | 0.05 | 0.08 | 0.08 | 86 | 1013.6 |
| 20260504223827 | 58 | 122 | 0.0 | 0.0 | 0.05 | 0.08 | 0.08 | 85 | 1013.5 |
| 20260504223335 | 58 | 122 | 0.0 | 0.0 | 0.04 | 0.07 | 0.07 | 85 | 1013.6 |
| 20260504222824 | 58 | 122 | 0.0 | 0.0 | 0.04 | 0.07 | 0.07 | 84 | 1013.7 |
| 20260504222333 | 58 | 122 | 0.0 | 0.0 | 0.04 | 0.07 | 0.07 | 84 | 1013.8 |
| 20260504221826 | 58 | 122 | 0.0 | 0.0 | 0.03 | 0.06 | 0.06 | 83 | 1013.8 |
| 20260504221333 | 58 | 123 | 0.0 | 0.0 | 0.03 | 0.06 | 0.06 | 83 | 1013.9 |
| 20260504220821 | 59 | 123 | 0.0 | 0.0 | 0.02 | 0.05 | 0.05 | 82 | 1013.8 |
| 20260504220328 | 59 | 126 | 0.0 | 0.0 | 0.02 | 0.05 | 0.05 | 82 | 1013.8 |
| 20260504215820 | 59 | 126 | 0.0 | 0.0 | 0.01 | 0.04 | 0.04 | 81 | 1013.8 |
| 20260504215328 | 59 | 126 | 0.0 | 0.0 | 0.01 | 0.04 | 0.04 | 81 | 1013.8 |
| 20260504214818 | 59 | 126 | 0.0 | 0.0 | 0.01 | 0.04 | 0.04 | 80 | 1013.8 |
| 20260504214327 | 59 | 126 | 0.0 | 0.0 | 0.00 | 0.03 | 0.03 | 79 | 1013.8 |
| 20260504213819 | 59 | 126 | 0.0 | 0.0 | 0.00 | 0.03 | 0.03 | 79 | 1013.8 |
| 20260504213327 | 60 | 127 | 0.0 | 0.0 | 0.00 | 0.03 | 0.03 | 78 | 1014.0 |
| 20260504212818 | 60 | 126 | 0.0 | 0.0 | 0.00 | 0.03 | 0.03 | 77 | 1013.9 |
| 20260504212326 | 60 | 127 | 0.0 | 0.0 | 0.00 | 0.03 | 0.03 | 77 | 1013.8 |
| 20260504211833 | 60 | 127 | 0.0 | 0.0 | 0.00 | 0.03 | 0.03 | 77 | 1013.8 |
| 20260504211324 | 60 | 126 | 0.0 | 0.0 | 0.00 | 0.03 | 0.03 | 77 | 1013.9 |
| 20260504210833 | 60 | 127 | 0.0 | 0.0 | 0.00 | 0.03 | 0.03 | 77 | 1013.9 |
| 20260504210321 | 60 | 126 | 0.0 | 0.0 | 0.00 | 0.03 | 0.03 | 77 | 1013.9 |
| 20260504205830 | 60 | 127 | 0.0 | 0.0 | 0.00 | 0.03 | 0.03 | 77 | 1013.8 |
| 20260504205318 | 60 | 127 | 0.0 | 0.0 | 0.00 | 0.03 | 0.03 | 78 | 1013.8 |
| 20260504204831 | 60 | 128 | 0.0 | 0.0 | 0.00 | 0.03 | 0.03 | 79 | 1013.7 |
| 20260504204318 | 60 | 128 | 0.0 | 0.0 | 0.00 | 0.03 | 0.03 | 79 | 1013.5 |
| 20260504203827 | 60 | 128 | 0.0 | 0.0 | 0.00 | 0.03 | 0.03 | 79 | 1013.6 |
| 20260504203333 | 60 | 128 | 0.0 | 0.0 | 0.01 | 0.03 | 0.03 | 80 | 1013.6 |
| 20260504202826 | 60 | 129 | 0.0 | 0.0 | 0.01 | 0.03 | 0.03 | 81 | 1013.4 |
| 20260504202334 | 60 | 129 | 0.0 | 0.0 | 0.01 | 0.03 | 0.03 | 80 | 1013.5 |
| 20260504201822 | 59 | 129 | 0.0 | 0.0 | 0.01 | 0.03 | 0.03 | 80 | 1013.6 |
| 20260504201330 | 60 | 128 | 0.0 | 0.0 | 0.01 | 0.03 | 0.03 | 80 | 1013.8 |
| 20260504200822 | 59 | 128 | 0.0 | 0.0 | 0.01 | 0.03 | 0.03 | 80 | 1013.5 |
| 20260504200330 | 59 | 128 | 0.0 | 0.0 | 0.01 | 0.03 | 0.03 | 80 | 1013.8 |
| 20260504195819 | 59 | 129 | 0.0 | 0.0 | 0.01 | 0.03 | 0.03 | 79 | 1013.7 |
| 20260504195327 | 59 | 129 | 0.0 | 0.0 | 0.01 | 0.03 | 0.03 | 79 | 1013.7 |
| 20260504194836 | 59 | 129 | 0.0 | 0.0 | 0.01 | 0.03 | 0.03 | 79 | 1013.8 |
| 20260504194329 | 59 | 128 | 0.0 | 0.0 | 0.01 | 0.03 | 0.03 | 79 | 1013.8 |
| 20260504193817 | 59 | 128 | 0.0 | 0.0 | 0.01 | 0.03 | 0.03 | 79 | 1013.8 |
| 20260504193325 | 59 | 128 | 0.0 | 0.0 | 0.00 | 0.02 | 0.02 | 79 | 1013.9 |
| 20260504192834 | 59 | 190 | 0.0 | 0.0 | 0.00 | 0.02 | 0.02 | 80 | 1013.9 |
| 20260504192322 | 59 | 191 | 0.0 | 0.0 | 0.00 | 0.02 | 0.02 | 80 | 1013.9 |
| 20260504191834 | 59 | 192 | 0.0 | 0.0 | 0.00 | 0.02 | 0.02 | 79 | 1013.8 |
| 20260504191323 | 59 | 192 | 0.0 | 0.0 | 0.00 | 0.02 | 0.02 | 79 | 1013.8 |
| 20260504190833 | 59 | 192 | 0.0 | 0.0 | 0.00 | 0.02 | 0.02 | 79 | 1013.7 |
| 20260504190325 | 59 | 191 | 0.0 | 0.0 | 0.00 | 0.02 | 0.02 | 79 | 1013.8 |
| 20260504185818 | 59 | 148 | 0.0 | 0.0 | 0.00 | 0.02 | 0.02 | 80 | 1013.8 |
| 20260504185327 | 59 | 148 | 0.0 | 0.0 | 0.00 | 0.02 | 0.02 | 80 | 1013.9 |
| 20260504184816 | 59 | 146 | 0.0 | 0.0 | 0.00 | 0.02 | 0.02 | 81 | 1014.0 |
| 20260504184327 | 58 | 133 | 0.0 | 0.0 | 0.00 | 0.02 | 0.02 | 81 | 1014.0 |
| 20260504183816 | 58 | 133 | 0.0 | 0.0 | 0.01 | 0.02 | 0.02 | 81 | 1014.0 |
| 20260504183327 | 58 | 132 | 0.0 | 0.0 | 0.01 | 0.02 | 0.02 | 82 | 1014.1 |
| 20260504182836 | 58 | 128 | 0.0 | 0.0 | 0.01 | 0.02 | 0.02 | 82 | 1014.1 |
| 20260504182324 | 58 | 125 | 0.0 | 0.0 | 0.01 | 0.02 | 0.02 | 82 | 1014.2 |
| 20260504181820 | 58 | 125 | 0.0 | 0.0 | 0.02 | 0.02 | 0.02 | 82 | 1014.1 |
| 20260504181328 | 58 | 125 | 0.0 | 0.0 | 0.02 | 0.02 | 0.02 | 82 | 1014.1 |
| 20260504180817 | 58 | 168 | 0.0 | 0.0 | 0.02 | 0.02 | 0.02 | 82 | 1014.1 |
| 20260504180324 | 58 | 167 | 0.0 | 0.0 | 0.02 | 0.02 | 0.02 | 82 | 1014.0 |
| 20260504175832 | 58 | 167 | 0.0 | 0.0 | 0.02 | 0.02 | 0.02 | 81 | 1014.0 |
| 20260504175323 | 58 | 167 | 0.0 | 0.0 | 0.02 | 0.02 | 0.02 | 80 | 1013.9 |
| 20260504174831 | 58 | 167 | 0.0 | 0.0 | 0.02 | 0.02 | 0.02 | 79 | 1013.8 |
| 20260504174321 | 58 | 168 | 0.0 | 0.0 | 0.02 | 0.02 | 0.02 | 79 | 1013.8 |
| 20260504173829 | 58 | 168 | 0.0 | 0.0 | 0.01 | 0.01 | 0.01 | 78 | 1013.7 |
| 20260504173321 | 58 | 168 | 0.0 | 0.0 | 0.01 | 0.01 | 0.01 | 78 | 1013.7 |
| 20260504172828 | 58 | 163 | 0.0 | 0.0 | 0.01 | 0.01 | 0.01 | 78 | 1013.6 |
| 20260504172316 | 58 | 164 | 0.0 | 0.0 | 0.01 | 0.01 | 0.01 | 77 | 1013.6 |
| 20260504171825 | 58 | 164 | 0.0 | 0.0 | 0.00 | 0.00 | 0.00 | 76 | 1013.5 |
| 20260504171332 | 58 | 159 | 0.0 | 0.0 | 0.00 | 0.00 | 0.00 | 75 | 1013.6 |
| 20260504170821 | 58 | 158 | 0.0 | 0.0 | 0.00 | 0.00 | 0.00 | 75 | 1013.3 |
| 20260504170330 | 59 | 165 | 0.0 | 0.0 | 0.00 | 0.00 | 0.00 | 75 | 1013.3 |
| 20260504160319 | 58 | 115 | 0.0 | 0.0 | 0.00 | 0.00 | 0.00 | 76 | 1013.5 |
| 20260504150825 | 58 | 170 | 0.0 | 0.0 | 0.00 | 0.00 | 0.00 | 79 | 1013.0 |
| 20260504150314 | 58 | 152 | 0.0 | 0.0 | 0.00 | 0.00 | 0.00 | 80 | 1013.0 |
| 20260504141331 | 56 | 128 | 0.0 | 0.0 | 0.00 | 0.00 | 0.00 | 83 | 1012.9 |
| 20260504140823 | 56 | 128 | 0.0 | 0.0 | 0.00 | 0.00 | 0.00 | 83 | 1013.0 |
| 20260504140331 | 56 | 123 | 0.0 | 0.0 | 0.00 | 0.00 | 0.00 | 82 | 1013.0 |
| 20260504130320 | 55 | 133 | 0.0 | 0.0 | 0.00 | 0.00 | 0.00 | 82 | 1012.4 |
| 20260504120317 | 55 | 105 | 0.0 | 0.0 | 0.00 | 0.00 | 0.00 | 82 | 1012.5 |
| 20260504110318 | 55 | 151 | 0.0 | 0.0 | 0.00 | 0.00 | 0.00 | 81 | 1012.2 |
| 20260504100326 | 56 | 121 | 0.0 | 0.0 | 0.00 | 0.00 | 0.00 | 80 | 1012.3 |
| 20260504081821 | 56 | 194 | 0.0 | 0.0 | 0.00 | 0.00 | 0.00 | 78 | 1012.7 |
| 20260504081330 | 56 | 194 | 0.0 | 0.0 | 0.00 | 0.00 | 0.00 | 78 | 1012.7 |
| 20260504080818 | 56 | 194 | 0.0 | 0.0 | 0.00 | 0.00 | 0.00 | 78 | 1012.7 |
| 20260504080327 | 56 | 194 | 0.0 | 0.0 | 0.00 | 0.00 | 0.00 | 78 | 1012.6 |
| 20260504070320 | 57 | 213 | 0.0 | 0.0 | 0.00 | 0.00 | 0.00 | 75 | 1012.4 |
| 20260504050332 | 60 | 217 | 0.0 | 0.0 | 0.00 | 0.00 | 0.00 | 68 | 1011.7 |
| 20260504045823 | 60 | 217 | 0.0 | 0.0 | 0.00 | 0.00 | 0.00 | 67 | 1011.7 |
| 20260504045332 | 60 | 217 | 0.0 | 0.0 | 0.00 | 0.00 | 0.00 | 67 | 1011.7 |
| 20260504044821 | 61 | 217 | 0.0 | 0.0 | 0.00 | 0.00 | 0.00 | 67 | 1011.6 |
| 20260504044330 | 61 | 217 | 0.0 | 0.0 | 0.00 | 0.00 | 0.00 | 67 | 1011.6 |
| 20260504043819 | 61 | 217 | 0.0 | 0.0 | 0.00 | 0.00 | 0.00 | 67 | 1011.5 |
| 20260504043331 | 61 | 217 | 0.0 | 0.0 | 0.00 | 0.00 | 0.00 | 67 | 1011.5 |
| 20260504042820 | 61 | 217 | 0.0 | 0.0 | 0.00 | 0.00 | 0.00 | 66 | 1011.3 |
| 20260504042328 | 62 | 221 | 0.0 | 0.0 | 0.00 | 0.00 | 0.00 | 66 | 1011.4 |
| 20260504041820 | 62 | 183 | 0.0 | 0.0 | 0.00 | 0.00 | 0.00 | 65 | 1011.4 |
| 20260504041328 | 62 | 166 | 0.0 | 0.0 | 0.00 | 0.00 | 0.00 | 65 | 1011.2 |
| 20260504040817 | 62 | 165 | 0.0 | 0.0 | 0.00 | 0.00 | 0.00 | 65 | 1011.2 |
| 20260504040324 | 62 | 166 | 0.0 | 0.0 | 0.00 | 0.00 | 0.00 | 64 | 1011.1 |
| 20260504035833 | 63 | 165 | 0.0 | 0.0 | 0.00 | 0.00 | 0.00 | 64 | 1011.1 |
| 20260504035320 | 63 | 172 | 0.0 | 0.0 | 0.00 | 0.00 | 0.00 | 63 | 1011.0 |
| 20260504034828 | 63 | 173 | 0.0 | 0.0 | 0.00 | 0.00 | 0.00 | 63 | 1011.0 |
| 20260504034336 | 63 | 242 | 0.0 | 0.0 | 0.00 | 0.00 | 0.00 | 63 | 1011.0 |
| 20260504033824 | 63 | 307 | 0.0 | 0.0 | 0.00 | 0.00 | 0.00 | 62 | 1010.9 |
| 20260504033317 | 63 | 230 | 0.0 | 0.0 | 0.00 | 0.00 | 0.00 | 62 | 1010.8 |
| 20260504032827 | 63 | 230 | 0.0 | 0.0 | 0.00 | 0.00 | 0.00 | 61 | 1010.8 |
| 20260504032335 | 64 | 231 | 0.0 | 0.0 | 0.00 | 0.00 | 0.00 | 60 | 1010.8 |
| 20260504031824 | 64 | 265 | 0.0 | 0.0 | 0.00 | 0.00 | 0.00 | 60 | 1010.7 |
| 20260504031333 | 64 | 267 | 0.0 | 0.0 | 0.00 | 0.00 | 0.00 | 59 | 1010.7 |
| 20260504030821 | 64 | 189 | 0.0 | 0.0 | 0.00 | 0.00 | 0.00 | 60 | 1010.7 |
| 20260504030330 | 64 | 271 | 0.0 | 0.0 | 0.00 | 0.00 | 0.00 | 59 | 1010.6 |
| 20260504025820 | 64 | 254 | 0.0 | 0.0 | 0.00 | 0.00 | 0.00 | 59 | 1010.5 |
| 20260504025328 | 65 | 265 | 0.0 | 0.0 | 0.00 | 0.00 | 0.00 | 59 | 1010.4 |
| 20260504024822 | 65 | 221 | 0.0 | 0.0 | 0.00 | 0.00 | 0.00 | 58 | 1010.5 |
| 20260504024329 | 65 | 243 | 0.0 | 0.0 | 0.00 | 0.00 | 0.00 | 58 | 1010.4 |
| 20260504023818 | 65 | 209 | 0.0 | 0.0 | 0.00 | 0.00 | 0.00 | 58 | 1010.3 |
| 20260504023325 | 65 | 254 | 0.0 | 0.0 | 0.00 | 0.00 | 0.00 | 58 | 1010.2 |
| 20260504022834 | 65 | 221 | 0.0 | 0.0 | 0.00 | 0.00 | 0.00 | 57 | 1010.2 |
| 20260504022321 | 66 | 221 | 0.0 | 0.0 | 0.00 | 0.00 | 0.00 | 57 | 1010.2 |
| 20260504021829 | 66 | 202 | 0.0 | 0.0 | 0.00 | 0.00 | 0.00 | 57 | 1010.1 |
| 20260504021317 | 66 | 264 | 0.0 | 0.0 | 0.00 | 0.00 | 0.00 | 56 | 1010.1 |
| 20260504020826 | 66 | 258 | 0.0 | 0.0 | 0.00 | 0.00 | 0.00 | 56 | 1010.0 |
| 20260504020319 | 67 | 265 | 0.0 | 0.0 | 0.00 | 0.00 | 0.00 | 56 | 1010.0 |
| 20260504015829 | 67 | 256 | 0.0 | 0.0 | 0.00 | 0.00 | 0.00 | 55 | 1010.0 |
| 20260504015317 | 67 | 249 | 0.0 | 0.0 | 0.00 | 0.00 | 0.00 | 55 | 1010.1 |
| 20260504014827 | 68 | 265 | 0.0 | 0.0 | 0.00 | 0.00 | 0.00 | 54 | 1010.0 |
| 20260504014316 | 68 | 223 | 0.0 | 0.0 | 0.00 | 0.00 | 0.00 | 54 | 1009.8 |
| 20260504013829 | 68 | 238 | 0.0 | 0.0 | 0.00 | 0.00 | 0.00 | 54 | 1009.7 |
| 20260504013336 | 69 | 215 | 0.0 | 0.0 | 0.00 | 0.00 | 0.00 | 53 | 1009.7 |
| 20260504012825 | 69 | 307 | 0.0 | 0.0 | 0.00 | 0.00 | 0.00 | 52 | 1009.7 |
| 20260504012317 | 70 | 278 | 0.0 | 0.0 | 0.00 | 0.00 | 0.00 | 52 | 1009.6 |
| 20260504011825 | 70 | 281 | 0.0 | 0.0 | 0.00 | 0.00 | 0.00 | 51 | 1009.6 |
| 20260504011333 | 70 | 237 | 0.0 | 0.0 | 0.00 | 0.00 | 0.00 | 51 | 1009.7 |